Time,TemperatureF,DewpointF,PressureIn,WindDirection,WindDirectionDegrees,WindSpeedMPH,WindSpeedGustMPH,Humidity,HourlyPrecipIn,Conditions,Clouds,dailyrainin,SoftwareType,DateUTC
2013-05-18 00:02:00,53.0,48.0,30.09,North,355,1.0,4.0,82,0.00,,,0.68,,2013-05-18 05:02:00,
2013-05-18 00:12:00,53.0,48.0,30.09,North,355,1.0,4.0,82,0.00,,,0.68,,2013-05-18 05:12:00,
2013-05-18 00:22:00,53.0,47.0,30.10,NE,53,0.0,4.0,81,0.00,,,0.68,,2013-05-18 05:22:00,
2013-05-18 00:31:00,53.0,48.0,30.10,NNE,28,1.0,6.0,82,0.00,,,0.68,,2013-05-18 05:31:00,
2013-05-18 00:42:00,53.0,48.0,30.10,NNE,28,1.0,6.0,82,0.00,,,0.68,,2013-05-18 05:42:00,
2013-05-18 00:51:00,53.0,48.0,30.10,NNE,28,0.0,6.0,83,0.00,,,0.68,,2013-05-18 05:51:00,
2013-05-18 01:02:00,53.0,48.0,30.11,NNE,15,3.0,5.0,84,0.00,,,0.68,,2013-05-18 06:02:00,
2013-05-18 01:11:00,53.0,48.0,30.11,NNE,15,3.0,5.0,84,0.00,,,0.68,,2013-05-18 06:11:00,
2013-05-18 01:22:00,52.0,48.0,30.10,NNE,28,2.0,6.0,85,0.00,,,0.68,,2013-05-18 06:22:00,
2013-05-18 01:32:00,52.0,48.0,30.10,NE,42,1.0,6.0,85,0.00,,,0.68,,2013-05-18 06:32:00,
2013-05-18 01:42:00,52.0,48.0,30.10,NE,42,1.0,6.0,85,0.00,,,0.68,,2013-05-18 06:42:00,
2013-05-18 01:51:00,52.0,48.0,30.11,NE,48,0.0,2.0,86,0.00,,,0.68,,2013-05-18 06:51:00,
2013-05-18 02:01:00,52.0,48.0,30.11,NE,48,0.0,3.0,86,0.00,,,0.68,,2013-05-18 07:01:00,
2013-05-18 02:11:00,52.0,48.0,30.11,NE,48,0.0,3.0,86,0.00,,,0.68,,2013-05-18 07:11:00,
2013-05-18 02:21:00,52.0,48.0,30.11,NE,48,0.0,3.0,85,0.00,,,0.68,,2013-05-18 07:21:00,
2013-05-18 02:31:00,53.0,49.0,30.11,NE,48,3.0,3.0,85,0.00,,,0.68,,2013-05-18 07:31:00,
2013-05-18 02:42:00,53.0,49.0,30.11,NE,48,3.0,3.0,85,0.00,,,0.68,,2013-05-18 07:42:00,
2013-05-18 02:52:00,53.0,49.0,30.10,NE,48,0.0,1.0,85,0.00,,,0.68,,2013-05-18 07:52:00,
2013-05-18 03:01:00,53.0,49.0,30.10,NE,34,0.0,3.0,85,0.00,,,0.68,,2013-05-18 08:01:00,
2013-05-18 03:11:00,53.0,49.0,30.10,NE,34,0.0,3.0,85,0.00,,,0.68,,2013-05-18 08:11:00,
2013-05-18 03:21:00,53.0,48.0,30.11,NE,40,0.0,3.0,84,0.00,,,0.68,,2013-05-18 08:21:00,
2013-05-18 03:32:00,53.0,48.0,30.11,NE,40,0.0,1.0,84,0.00,,,0.68,,2013-05-18 08:32:00,
2013-05-18 03:42:00,53.0,48.0,30.11,NE,40,0.0,1.0,84,0.00,,,0.68,,2013-05-18 08:42:00,
2013-05-18 03:52:00,53.0,48.0,30.10,NE,49,0.0,3.0,84,0.00,,,0.68,,2013-05-18 08:52:00,
2013-05-18 04:02:00,53.0,48.0,30.10,NE,53,0.0,4.0,84,0.00,,,0.68,,2013-05-18 09:02:00,
2013-05-18 04:11:00,53.0,48.0,30.10,NE,53,0.0,4.0,84,0.00,,,0.68,,2013-05-18 09:11:00,
2013-05-18 04:22:00,53.0,49.0,30.09,NE,53,0.0,2.0,85,0.00,,,0.68,,2013-05-18 09:22:00,
2013-05-18 04:32:00,53.0,49.0,30.09,NE,54,0.0,3.0,85,0.00,,,0.68,,2013-05-18 09:32:00,
2013-05-18 04:43:00,53.0,49.0,30.09,NE,54,0.0,3.0,85,0.00,,,0.68,,2013-05-18 09:43:00,
2013-05-18 04:53:00,53.0,49.0,30.09,NE,36,0.0,3.0,86,0.00,,,0.68,,2013-05-18 09:53:00,
2013-05-18 05:03:00,52.0,48.0,30.08,SSE,148,0.0,3.0,86,0.00,,,0.68,,2013-05-18 10:03:00,
2013-05-18 05:12:00,52.0,48.0,30.08,SSE,148,0.0,3.0,86,0.00,,,0.68,,2013-05-18 10:12:00,
2013-05-18 05:23:00,52.0,48.0,30.08,ESE,111,0.0,4.0,86,0.00,,,0.68,,2013-05-18 10:23:00,
2013-05-18 05:33:00,52.0,48.0,30.09,NE,39,0.0,1.0,87,0.00,,,0.68,,2013-05-18 10:33:00,
2013-05-18 05:42:00,52.0,48.0,30.09,NE,39,0.0,1.0,87,0.00,,,0.68,,2013-05-18 10:42:00,
2013-05-18 05:52:00,52.0,48.0,30.09,ENE,72,0.0,1.0,87,0.00,,,0.68,,2013-05-18 10:52:00,
2013-05-18 06:02:00,51.0,47.0,30.08,ENE,72,0.0,1.0,87,0.00,,,0.68,,2013-05-18 11:02:00,
2013-05-18 06:12:00,51.0,47.0,30.08,ENE,72,0.0,1.0,87,0.00,,,0.68,,2013-05-18 11:12:00,
2013-05-18 06:22:00,51.0,47.0,30.08,ESE,112,0.0,3.0,87,0.00,,,0.68,,2013-05-18 11:22:00,
2013-05-18 06:33:00,51.0,47.0,30.09,ESE,112,0.0,1.0,87,0.00,,,0.68,,2013-05-18 11:33:00,
2013-05-18 06:42:00,51.0,47.0,30.09,ESE,112,0.0,1.0,87,0.00,,,0.68,,2013-05-18 11:42:00,
2013-05-18 06:52:00,52.0,48.0,30.09,ESE,113,2.0,3.0,87,0.00,,,0.68,,2013-05-18 11:52:00,
2013-05-18 07:01:00,53.0,49.0,30.09,SE,127,1.0,5.0,85,0.00,,,0.68,,2013-05-18 12:01:00,
2013-05-18 07:12:00,53.0,49.0,30.09,SE,127,1.0,5.0,85,0.00,,,0.68,,2013-05-18 12:12:00,
2013-05-18 07:23:00,54.0,49.0,30.09,SE,135,3.0,7.0,84,0.00,,,0.68,,2013-05-18 12:23:00,
2013-05-18 07:33:00,55.0,51.0,30.10,SE,137,1.0,5.0,86,0.00,,,0.67,,2013-05-18 12:33:00,
2013-05-18 07:42:00,55.0,51.0,30.10,SE,137,1.0,5.0,86,0.00,,,0.67,,2013-05-18 12:42:00,
2013-05-18 07:52:00,55.0,51.0,30.09,ESE,122,4.0,6.0,87,0.00,,,0.64,,2013-05-18 12:52:00,
2013-05-18 08:01:00,56.0,52.0,30.10,ENE,76,1.0,8.0,88,0.00,,,0.61,,2013-05-18 13:01:00,
2013-05-18 08:11:00,56.0,52.0,30.10,ENE,76,1.0,8.0,88,0.00,,,0.61,,2013-05-18 13:11:00,
2013-05-18 08:21:00,58.0,54.0,30.10,ESE,104,3.0,6.0,86,0.00,,,0.55,,2013-05-18 13:21:00,
2013-05-18 08:33:00,58.0,54.0,30.09,SE,140,3.0,6.0,85,0.00,,,0.48,,2013-05-18 13:33:00,
2013-05-18 08:43:00,58.0,54.0,30.09,SE,140,3.0,6.0,85,0.00,,,0.48,,2013-05-18 13:43:00,
2013-05-18 08:52:00,59.0,54.0,30.09,SE,128,1.0,5.0,84,0.00,,,0.42,,2013-05-18 13:52:00,
2013-05-18 09:03:00,59.0,54.0,30.10,ESE,119,4.0,8.0,83,0.00,,,0.39,,2013-05-18 14:03:00,
2013-05-18 09:12:00,59.0,54.0,30.10,ESE,119,4.0,8.0,83,0.00,,,0.39,,2013-05-18 14:12:00,
2013-05-18 09:22:00,60.0,54.0,30.10,ESE,119,2.0,5.0,82,0.00,,,0.33,,2013-05-18 14:22:00,
2013-05-18 09:32:00,60.0,54.0,30.10,ESE,120,3.0,3.0,81,0.00,,,0.29,,2013-05-18 14:32:00,
2013-05-18 09:42:00,60.0,54.0,30.10,ESE,120,3.0,3.0,81,0.00,,,0.29,,2013-05-18 14:42:00,
2013-05-18 09:54:00,61.0,54.0,30.09,SSE,149,4.0,8.0,79,0.00,,,0.24,,2013-05-18 14:54:00,
2013-05-18 10:03:00,62.0,55.0,30.09,SE,143,0.0,7.0,78,0.00,,,0.22,,2013-05-18 15:03:00,
2013-05-18 10:13:00,62.0,55.0,30.09,SE,143,0.0,7.0,78,0.00,,,0.22,,2013-05-18 15:13:00,
2013-05-18 10:23:00,63.0,57.0,30.09,SE,130,0.0,6.0,81,0.00,,,0.20,,2013-05-18 15:23:00,
2013-05-18 10:33:00,63.0,56.0,30.10,SSE,161,2.0,8.0,79,0.00,,,0.19,,2013-05-18 15:33:00,
2013-05-18 10:43:00,63.0,56.0,30.10,SSE,161,2.0,8.0,79,0.00,,,0.19,,2013-05-18 15:43:00,
2013-05-18 10:53:00,64.0,57.0,30.11,ESE,123,2.0,5.0,79,0.00,,,0.14,,2013-05-18 15:53:00,
2013-05-18 11:02:00,65.0,58.0,30.11,ESE,108,0.0,7.0,77,0.00,,,0.10,,2013-05-18 16:02:00,
2013-05-18 11:13:00,65.0,58.0,30.11,ESE,108,0.0,7.0,77,0.00,,,0.10,,2013-05-18 16:13:00,
2013-05-18 11:22:00,65.0,58.0,30.11,SSE,167,0.0,5.0,77,0.00,,,0.07,,2013-05-18 16:22:00,
2013-05-18 11:33:00,67.0,59.0,30.10,SE,129,1.0,4.0,76,0.00,,,0.03,,2013-05-18 16:33:00,
2013-05-18 11:42:00,67.0,59.0,30.10,SE,129,1.0,4.0,76,0.00,,,0.03,,2013-05-18 16:42:00,
2013-05-18 11:52:00,68.0,60.0,30.10,SE,142,2.0,4.0,75,0.00,,,0.02,,2013-05-18 16:52:00,
2013-05-18 12:02:00,69.0,61.0,30.09,East,94,0.0,5.0,75,0.00,,,0.01,,2013-05-18 17:02:00,
2013-05-18 12:12:00,69.0,61.0,30.09,East,94,0.0,5.0,75,0.00,,,0.01,,2013-05-18 17:12:00,
2013-05-18 12:22:00,70.0,61.0,30.09,SE,141,3.0,7.0,74,0.00,,,0.01,,2013-05-18 17:22:00,
2013-05-18 12:32:00,70.0,61.0,30.08,East,82,1.0,6.0,74,0.00,,,0.01,,2013-05-18 17:32:00,
2013-05-18 12:42:00,70.0,61.0,30.08,East,82,1.0,6.0,74,0.00,,,0.01,,2013-05-18 17:42:00,
2013-05-18 12:51:00,71.0,62.0,30.07,SE,142,1.0,7.0,73,0.00,,,0.01,,2013-05-18 17:51:00,
2013-05-18 13:01:00,72.0,62.0,30.07,SSE,165,5.0,8.0,71,0.00,,,0.01,,2013-05-18 18:01:00,
2013-05-18 13:12:00,72.0,62.0,30.07,SSE,165,5.0,8.0,71,0.00,,,0.01,,2013-05-18 18:12:00,
2013-05-18 13:21:00,72.0,62.0,30.06,SSE,151,2.0,7.0,72,0.00,,,0.01,,2013-05-18 18:21:00,
2013-05-18 13:32:00,72.0,62.0,30.06,ESE,116,0.0,6.0,72,0.00,,,0.01,,2013-05-18 18:32:00,
2013-05-18 13:42:00,72.0,62.0,30.06,ESE,116,0.0,6.0,72,0.00,,,0.01,,2013-05-18 18:42:00,
2013-05-18 13:52:00,73.0,63.0,30.05,ESE,119,1.0,6.0,72,0.00,,,0.01,,2013-05-18 18:52:00,
2013-05-18 14:02:00,74.0,64.0,30.05,SE,127,3.0,8.0,70,0.00,,,0.01,,2013-05-18 19:02:00,
2013-05-18 14:11:00,74.0,64.0,30.05,SE,127,3.0,8.0,70,0.00,,,0.01,,2013-05-18 19:11:00,
2013-05-18 14:22:00,75.0,63.0,30.04,SE,128,2.0,7.0,66,0.00,,,0.01,,2013-05-18 19:22:00,
2013-05-18 14:32:00,75.0,64.0,30.07,SE,127,3.0,6.0,68,0.00,,,0.01,,2013-05-18 19:32:00,
2013-05-18 14:42:00,75.0,64.0,30.07,SE,127,3.0,6.0,68,0.00,,,0.01,,2013-05-18 19:42:00,
2013-05-18 14:52:00,76.0,63.0,30.07,SSE,160,4.0,7.0,65,0.00,,,0.01,,2013-05-18 19:52:00,
2013-05-18 15:02:00,77.0,64.0,30.06,SSE,150,5.0,5.0,64,0.00,,,0.00,,2013-05-18 20:02:00,
2013-05-18 15:11:00,77.0,64.0,30.06,SSE,150,5.0,5.0,64,0.00,,,0.00,,2013-05-18 20:11:00,
2013-05-18 15:22:00,76.0,63.0,30.05,SE,140,5.0,8.0,65,0.00,,,0.00,,2013-05-18 20:22:00,
2013-05-18 15:32:00,76.0,63.0,30.04,ESE,113,2.0,6.0,65,0.00,,,0.00,,2013-05-18 20:32:00,
2013-05-18 15:42:00,76.0,63.0,30.04,ESE,113,2.0,6.0,65,0.00,,,0.00,,2013-05-18 20:42:00,
2013-05-18 15:52:00,77.0,64.0,30.03,SE,142,2.0,9.0,64,0.00,,,0.00,,2013-05-18 20:52:00,
2013-05-18 16:01:00,77.0,64.0,30.03,SSE,153,1.0,7.0,64,0.00,,,0.00,,2013-05-18 21:01:00,
2013-05-18 16:12:00,77.0,64.0,30.03,SSE,153,1.0,7.0,64,0.00,,,0.00,,2013-05-18 21:12:00,
2013-05-18 16:21:00,77.0,64.0,30.03,SE,144,2.0,10.0,64,0.00,,,0.00,,2013-05-18 21:21:00,
2013-05-18 16:32:00,77.0,64.0,30.02,SE,130,3.0,7.0,64,0.00,,,0.00,,2013-05-18 21:32:00,
2013-05-18 16:43:00,77.0,64.0,30.02,SE,130,3.0,7.0,64,0.00,,,0.00,,2013-05-18 21:43:00,
2013-05-18 16:53:00,76.0,64.0,30.02,ESE,109,2.0,9.0,66,0.00,,,0.00,,2013-05-18 21:53:00,
2013-05-18 17:03:00,76.0,63.0,30.02,SE,127,6.0,7.0,65,0.00,,,0.00,,2013-05-18 22:03:00,
2013-05-18 17:12:00,76.0,63.0,30.02,SE,127,6.0,7.0,65,0.00,,,0.00,,2013-05-18 22:12:00,
2013-05-18 17:23:00,76.0,64.0,30.01,SSE,153,2.0,8.0,66,0.00,,,0.00,,2013-05-18 22:23:00,
2013-05-18 17:33:00,76.0,63.0,30.01,ESE,121,4.0,8.0,64,0.00,,,0.00,,2013-05-18 22:33:00,
2013-05-18 17:42:00,76.0,63.0,30.01,SSE,155,5.0,8.0,64,0.00,,,0.00,,2013-05-18 22:42:00,
2013-05-18 17:52:00,76.0,63.0,30.01,SSE,155,5.0,8.0,64,0.00,,,0.00,,2013-05-18 22:52:00,
2013-05-18 18:01:00,77.0,63.0,30.01,ESE,105,2.0,9.0,63,0.00,,,0.00,,2013-05-18 23:01:00,
2013-05-18 18:12:00,77.0,63.0,30.01,ESE,105,2.0,9.0,63,0.00,,,0.00,,2013-05-18 23:12:00,
2013-05-18 18:22:00,76.0,62.0,30.01,SE,140,6.0,8.0,62,0.00,,,0.00,,2013-05-18 23:22:00,
2013-05-18 18:32:00,76.0,62.0,30.00,SE,134,3.0,8.0,63,0.00,,,0.00,,2013-05-18 23:32:00,
2013-05-18 18:41:00,76.0,62.0,30.00,SE,134,3.0,8.0,63,0.00,,,0.00,,2013-05-18 23:41:00,
2013-05-18 18:53:00,76.0,63.0,30.00,SE,138,2.0,8.0,64,0.00,,,0.00,,2013-05-18 23:53:00,
2013-05-18 19:01:00,76.0,62.0,30.00,SE,142,3.0,6.0,63,0.00,,,0.00,,2013-05-19 00:01:00,
2013-05-18 19:11:00,76.0,62.0,30.00,SE,142,3.0,6.0,63,0.00,,,0.00,,2013-05-19 00:11:00,
2013-05-18 19:21:00,75.0,63.0,30.00,SE,130,2.0,7.0,66,0.00,,,0.00,,2013-05-19 00:21:00,
2013-05-18 19:32:00,74.0,63.0,30.00,SE,125,1.0,6.0,68,0.00,,,0.00,,2013-05-19 00:32:00,
2013-05-18 19:41:00,74.0,63.0,30.00,SE,125,1.0,6.0,68,0.00,,,0.00,,2013-05-19 00:41:00,
2013-05-18 19:52:00,74.0,63.0,30.00,ESE,119,3.0,5.0,69,0.00,,,0.00,,2013-05-19 00:52:00,
2013-05-18 20:01:00,73.0,62.0,30.00,ESE,107,2.0,5.0,69,0.00,,,0.00,,2013-05-19 01:01:00,
2013-05-18 20:11:00,73.0,62.0,30.00,ESE,107,2.0,5.0,69,0.00,,,0.00,,2013-05-19 01:11:00,
2013-05-18 20:21:00,72.0,62.0,30.00,SE,138,2.0,5.0,71,0.00,,,0.00,,2013-05-19 01:21:00,
2013-05-18 20:32:00,72.0,62.0,30.00,ESE,119,3.0,7.0,72,0.00,,,0.00,,2013-05-19 01:32:00,
2013-05-18 20:42:00,72.0,62.0,30.00,ESE,119,3.0,7.0,72,0.00,,,0.00,,2013-05-19 01:42:00,
2013-05-18 20:52:00,70.0,61.0,30.00,SE,132,4.0,9.0,74,0.00,,,0.00,,2013-05-19 01:52:00,
2013-05-18 21:01:00,70.0,62.0,30.00,SE,144,0.0,7.0,76,0.00,,,0.00,,2013-05-19 02:01:00,
2013-05-18 21:11:00,70.0,62.0,30.00,SE,144,0.0,7.0,76,0.00,,,0.00,,2013-05-19 02:11:00,
2013-05-18 21:21:00,69.0,61.0,30.01,ESE,121,1.0,3.0,77,0.00,,,0.00,,2013-05-19 02:21:00,
2013-05-18 21:32:00,68.0,61.0,30.01,ESE,107,0.0,4.0,78,0.00,,,0.00,,2013-05-19 02:32:00,
2013-05-18 21:42:00,68.0,61.0,30.01,ESE,107,0.0,4.0,78,0.00,,,0.00,,2013-05-19 02:42:00,
2013-05-18 21:52:00,68.0,61.0,30.01,ESE,115,0.0,3.0,78,0.00,,,0.00,,2013-05-19 02:52:00,
2013-05-18 22:01:00,67.0,60.0,30.01,SE,124,2.0,3.0,78,0.00,,,0.00,,2013-05-19 03:01:00,
2013-05-18 22:11:00,67.0,60.0,30.01,SE,124,2.0,3.0,78,0.00,,,0.00,,2013-05-19 03:11:00,
2013-05-18 22:21:00,67.0,60.0,30.01,SSE,148,4.0,5.0,79,0.00,,,0.00,,2013-05-19 03:21:00,
2013-05-18 22:33:00,66.0,60.0,30.01,SE,126,3.0,6.0,80,0.00,,,0.00,,2013-05-19 03:33:00,
2013-05-18 22:42:00,66.0,60.0,30.01,SE,126,3.0,6.0,80,0.00,,,0.00,,2013-05-19 03:42:00,
2013-05-18 22:53:00,66.0,60.0,30.00,SE,134,5.0,7.0,80,0.00,,,0.00,,2013-05-19 03:53:00,
2013-05-18 23:02:00,66.0,60.0,29.99,ESE,121,4.0,6.0,80,0.00,,,0.00,,2013-05-19 04:02:00,
2013-05-18 23:12:00,66.0,60.0,29.99,ESE,121,4.0,6.0,80,0.00,,,0.00,,2013-05-19 04:12:00,
2013-05-18 23:23:00,65.0,59.0,29.99,SE,128,1.0,7.0,81,0.00,,,0.00,,2013-05-19 04:23:00,
2013-05-18 23:33:00,65.0,59.0,29.99,ESE,121,2.0,8.0,81,0.00,,,0.00,,2013-05-19 04:33:00,
2013-05-18 23:42:00,65.0,59.0,29.99,ESE,121,2.0,8.0,81,0.00,,,0.00,,2013-05-19 04:42:00,
2013-05-18 23:52:00,65.0,59.0,29.99,NE,44,0.0,5.0,81,0.00,,,0.00,,2013-05-19 04:52:00,